Погода в Стригине

Россия / Владимирская область     55°33′29″N   41°53′13″E
темп.,
°C
ветер,
м/с
пор.,
м/с
влажн.,
%
обл.,
%
осадки,
мм/ч
давл.,
гПа
погр.,
м
9 марта, вт
вт900:00−15сз34960 0.0 100760
03:00−16сз34960 0.0 100947
06:00−18сз349755 0.0 101149
09:00−15ссз469571 0.1 1012257
12:00−12ссз459099 0.0 1013508
15:00−10ссз468799 0.1 1014762
18:00−13ссз3793100 0.1 1015185
21:00−17ссз4995100 0.1 1018259
10 марта, ср
ср1000:00−19ссз489795 0.1 1019187
03:00−20ссз489792 0.1 1021218
06:00−23ссз489892 0.0 1023208
09:00−22ссз589495 0.1 1025340
12:00−19ссз578882 0.0 1026561
15:00−16с578187 0.0 1026706
18:00−19ссз348919 0.0 102730
21:00−22сз349410 0.0 102849
11 марта, чт
чт1100:00−22сз35955 0.0 102973
03:00−23сз349819 0.0 103051
06:00−24сз33988 0.0 103136
09:00−19сз359511 0.0 1032192
12:00−13сз358333 0.0 1031394
15:00−10сз348016 0.0 1031510
18:00−13зсз23880 0.0 103120
21:00−17з23920 0.0 103220
12 марта, пт
пт1200:00−18зюз23930 0.0 103320
03:00−19зюз23940 0.0 103321
06:00−20юз34960 0.0 103436
09:00−16ююз46900 0.0 1034229
12:00−11ююз47840 0.0 1033404
15:00−9ююз59770 0.0 1032611
18:00−12ююз49860 0.0 1032159
21:00−16ююз511910 0.0 1032206
13 марта, сб
сб1300:00−17ююз512880 0.0 1032245
03:00−17ю512900 0.0 1031267
06:00−17ю614930 0.0 1029291
09:00−13ю8148350 0.0 1028486
12:00−9ю91581100 0.0 1027729
15:00−6ююз91582100 0.0 1025931
18:00−7ююз81487100 0.1 1024866
21:00−8ююз71587100 0.1 1024710